Blythe, CA

12:49 AM PST on February 10, 2016 (GMT -0800)
Blythe

Weather History for KBLH - September, 2013

Change the Weather History Date:

Sunday, September 1, 2013

  Actual Average Record
Temperature  
Mean Temperature 93 °F -  
Max Temperature 105 °F 102 °F 114 °F (2007)
Min Temperature 82 °F 77 °F 66 °F (1992)
Cooling Degree Days 28    
Growing Degree Days 43 (Base 50)    
Moisture  
Dew Point 69 °F    
Average Humidity 48    
Maximum Humidity 82    
Minimum Humidity 24    
Precipitation  
Precipitation 0.00 in - - ()
Sea Level Pressure  
Sea Level Pressure 29.77 in    
Wind  
Wind Speed 4 mph (ENE)    
Max Wind Speed 9 mph    
Max Gust Speed -    
Visibility 10 miles    
Events      
Averages and records for this station are not official NWS values.
T = Trace of Precipitation, MM = Missing Value Source: NWS Daily Summary

Daily Weather History Graph

Daily Weather History Graph

Search for Another Location

Airport or City:

Trip Planner

Search our weather history database for the weather conditions in past years. The results will help you decide how hot, cold, wet, or windy it might be!

Date:

Astronomy

Sep. 01, 2013 Rise Set
Actual Time 6:13 AM PDT 7:03 PM PDT
Civil Twilight 5:47 AM PDT 7:29 PM PDT
Nautical Twilight 5:17 AM PDT 7:59 PM PDT
Astronomical Twilight 4:46 AM PDT 8:29 PM PDT
Moon 2:45 AM PDT (9/1) 4:38 PM PDT (9/1)
Length of Visible Light 13h 41m
Length of Day
12h 50m
Waning Crescent, 13% of the Moon is Illuminated
Sep 1
Waning Crescent
Sep 5
New
Sep 12
First Quarter
Sep 19
Full
Sep 26
Last Quarter

Hourly Weather History & Observations

Time (PDT) Temp. Heat Index Dew Point Humidity Pressure Visibility Wind Dir Wind Speed Gust Speed Precip Events Conditions
12:52 AM 84.9 °F 93.3 °F 75.0 °F 72% 29.78 in 10.0 mi Calm Calm - N/A   Clear
1:52 AM 82.9 °F 91.8 °F 77.0 °F 82% 29.78 in 10.0 mi Calm Calm - N/A   Clear
2:52 AM 84.0 °F 91.9 °F 75.0 °F 74% 29.78 in 10.0 mi North 6.9 mph - N/A   Clear
3:52 AM 82.9 °F 90.8 °F 75.9 °F 79% 29.79 in 10.0 mi North 4.6 mph - N/A   Clear
4:52 AM 84.0 °F 91.9 °F 75.0 °F 74% 29.80 in 10.0 mi NNW 8.1 mph - N/A   Clear
5:52 AM 84.0 °F 89.6 °F 72.0 °F 67% 29.81 in 10.0 mi North 4.6 mph - N/A   Clear
6:52 AM 84.9 °F 90.7 °F 72.0 °F 65% 29.83 in 10.0 mi NNE 8.1 mph - N/A   Clear
7:52 AM 87.1 °F 92.8 °F 71.1 °F 59% 29.83 in 10.0 mi NNE 9.2 mph - N/A   Clear
8:52 AM 90.0 °F 96.4 °F 71.1 °F 54% 29.84 in 10.0 mi NE 6.9 mph - N/A   Clear
9:52 AM 93.0 °F 99.0 °F 70.0 °F 47% 29.84 in 10.0 mi Calm Calm - N/A   Clear
10:52 AM 95.0 °F 99.5 °F 68.0 °F 41% 29.83 in 10.0 mi Calm Calm - N/A   Clear
11:52 AM 97.0 °F 101.0 °F 66.9 °F 37% 29.81 in 10.0 mi ENE 8.1 mph - N/A   Clear
12:52 PM 98.1 °F 101.8 °F 66.0 °F 35% 29.80 in 10.0 mi SSE 3.5 mph - N/A   Clear
1:52 PM 100.0 °F 103.6 °F 64.9 °F 32% 29.78 in 10.0 mi South 9.2 mph - N/A   Clear
2:52 PM 100.0 °F 103.6 °F 64.9 °F 32% 29.75 in 10.0 mi Calm Calm - N/A   Clear
3:52 PM 102.9 °F 104.8 °F 62.1 °F 26% 29.72 in 10.0 mi Calm Calm - N/A   Clear
4:52 PM 104.0 °F 105.3 °F 60.1 °F 24% 29.70 in 10.0 mi West 8.1 mph - N/A   Clear
5:52 PM 102.0 °F 105.9 °F 64.9 °F 30% 29.69 in 10.0 mi East 5.8 mph - N/A   Clear
6:52 PM 100.0 °F 104.2 °F 66.0 °F 33% 29.70 in 10.0 mi ESE 5.8 mph - N/A   Clear
7:52 PM 97.0 °F 100.4 °F 66.0 °F 36% 29.71 in 10.0 mi ESE 3.5 mph - N/A   Clear
8:52 PM 96.1 °F 99.3 °F 66.0 °F 37% 29.73 in 10.0 mi SSE 4.6 mph - N/A   Clear
9:52 PM 95.0 °F 100.7 °F 69.1 °F 43% 29.74 in 10.0 mi WSW 4.6 mph - N/A   Clear
10:52 PM 95.0 °F 96.0 °F 63.0 °F 34% 29.75 in 10.0 mi WSW 6.9 mph - N/A   Clear
11:52 PM 93.0 °F 94.2 °F 63.0 °F 37% 29.74 in 10.0 mi SSW 4.6 mph - N/A   Clear